This is the latest recevied weather packets stored in our database for station/object KC1OEK-13. If no packets are shown the sender has not sent any weather packets the latest 10 day(s).
| Time | Temp. | Humidity | Pressure | Rain* | Wind** | Luminosity | Snow |
|---|---|---|---|---|---|---|---|
| 1777671604 | 15.56° C | 38% | 1011.3 hPa | 0 mm | - | 68 W/m² | - |
| 1777671301 | 16.11° C | 40% | 1011.4 hPa | 0 mm | - | 57 W/m² | - |
| 1777670996 | 16.67° C | 37% | 1011.4 hPa | 0 mm | - | 65 W/m² | - |
| 1777670693 | 17.22° C | 38% | 1011.4 hPa | 0 mm | - | 77 W/m² | - |
| 1777670390 | 17.78° C | 34% | 1011.3 hPa | 0 mm | - | 309 W/m² | - |
| 1777670088 | 17.22° C | 37% | 1011.3 hPa | 0 mm | - | 336 W/m² | - |
| 1777669785 | 17.22° C | 35% | 1011.4 hPa | 0 mm | - | 374 W/m² | - |
| 1777669481 | 16.11° C | 37% | 1011.6 hPa | 0 mm | - | 362 W/m² | - |
| 1777669178 | 15.56° C | 38% | 1011.4 hPa | 0 mm | - | 68 W/m² | - |
| 1777668875 | 16.67° C | 38% | 1011.5 hPa | 0 mm | - | 74 W/m² | - |
| 1777668572 | 16.67° C | 37% | 1011.2 hPa | 0 mm | - | 346 W/m² | - |
| 1777668268 | 17.22° C | 36% | 1011.5 hPa | 0 mm | - | 430 W/m² | - |
| 1777667964 | 17.22° C | 37% | 1011.3 hPa | 0 mm | - | 446 W/m² | - |
| 1777667661 | 17.22° C | 36% | 1011.3 hPa | 0 mm | - | 443 W/m² | - |
| 1777667359 | 17.22° C | 42% | 1011.3 hPa | 0 mm | - | 462 W/m² | - |
| 1777667056 | 17.22° C | 36% | 1011.3 hPa | 0 mm | - | 470 W/m² | - |
| 1777666752 | 17.78° C | 39% | 1011.2 hPa | 0 mm | - | 483 W/m² | - |
| 1777666449 | 16.67° C | 35% | 1011.4 hPa | 0 mm | - | 515 W/m² | - |
| 1777666146 | 17.22° C | 36% | 1011.4 hPa | 0 mm | - | 532 W/m² | - |
| 1777665843 | 17.22° C | 35% | 1011.4 hPa | 0 mm | - | 545 W/m² | - |
| 1777665541 | 17.22° C | 38% | 1011.4 hPa | 0 mm | - | 564 W/m² | - |
| 1777665236 | 16.67° C | 36% | 1011.4 hPa | 0 mm | - | 563 W/m² | - |
| 1777664933 | 16.11° C | 38% | 1011.4 hPa | 0 mm | - | 585 W/m² | - |
| 1777664629 | 16.67° C | 35% | 1011.6 hPa | 0 mm | - | 589 W/m² | - |
| 1777664325 | 17.22° C | 37% | 1011.6 hPa | 0 mm | - | 534 W/m² | - |
* Rain latest hour (hover to see other rain measurements)
** Current wind speed in m/s (hover to see current wind gust speed)